Retour au catalogue

EGYPTSAT 1

ActifScienceSSO
NORAD 31117·PAYLOAD·🇪🇬 Egypt

Lancé Apr 17, 2007 depuis Baikonur Cosmodrome

Loading…

Prochains Passages (prochaines 24 heures)

TLE

FraisSource: Space-Track

Époque: Sep 13, 2026, 20:02 UTC

1 31117U 07012A   26256.83485385  .00000783  00000-0  11084-3 0  9993
2 31117  98.0693 213.3643 0004970 160.7896 199.3504 14.79902200 42820

Suivez EGYPTSAT 1 en temps réel avec AllMySat

Download on the App Store